FW2944 Weather Reports


time (UTC)temp
C
wind
direction
speed
KPH
gust
KPH
rain 1hr
cm
rain 24hr
cm
rain mn
cm
humidity
%
barometer
mb
20260906225838 17 348 16.1 20.9 0.00 0.00 0.00 71 1014.7
20260906225334 17 323 12.9 14.5 0.00 0.00 0.00 70 1014.8
20260906224829 17 332 16.1 17.7 0.00 0.00 0.00 71 1014.9
20260906224326 17 306 19.3 20.9 0.00 0.00 0.00 72 1014.9
20260906223822 17 329 14.5 17.7 0.00 0.00 0.00 73 1014.9
20260906223318 17 314 19.3 24.1 0.00 0.00 0.00 73 1014.9
20260906222815 17 323 20.9 22.5 0.00 0.00 0.00 72 1015.2
20260906222315 18 315 29.0 33.8 0.00 0.00 0.00 69 1015.2
20260906221813 18 296 11.3 12.9 0.00 0.00 0.00 64 1015.1
20260906221312 18 337 12.9 12.9 0.00 0.00 0.00 64 1014.8
20260906220808 18 309 12.9 14.5 0.00 0.00 0.00 64 1014.8
20260906220304 18 347 12.9 14.5 0.00 0.00 0.00 64 1014.9
20260906215802 19 289 14.5 14.5 0.00 0.00 0.00 62 1015.1
20260906215257 18 356 11.3 14.5 0.00 0.00 0.00 63 1015.1
20260906214755 19 314 6.4 8.0 0.00 0.00 0.00 63 1014.9
20260906214250 18 284 9.7 11.3 0.00 0.00 0.00 63 1014.8
20260906213749 19 297 14.5 14.5 0.00 0.00 0.00 63 1015.1
20260906213249 19 277 14.5 16.1 0.00 0.00 0.00 62 1015.1
20260906212746 18 297 9.7 11.3 0.00 0.00 0.00 64 1014.8
20260906212242 19 314 12.9 14.5 0.00 0.00 0.00 62 1015.2
20260906211742 19 282 9.7 11.3 0.00 0.00 0.00 63 1015.4
20260906211237 18 326 3.2 3.2 0.00 0.00 0.00 64 1015.2
20260906210732 18 327 9.7 11.3 0.00 0.00 0.00 65 1015.2
20260906210227 18 332 9.7 11.3 0.00 0.00 0.00 64 1015.1
20260906205722 18 342 8.0 9.7 0.00 0.00 0.00 64 1015.4
20260906205219 19 300 14.5 17.7 0.00 0.00 0.00 63 1015.3
20260906204719 19 315 11.3 14.5 0.00 0.00 0.00 62 1015.5
20260906204218 19 304 8.0 9.7 0.00 0.00 0.00 63 1015.3
20260906203718 20 246 4.8 4.8 0.00 0.00 0.00 63 1015.3
20260906203213 19 289 9.7 11.3 0.00 0.00 0.00 63 1015.4
20260906202710 18 307 9.7 11.3 0.00 0.00 0.00 63 1015.5
20260906202208 18 256 3.2 3.2 0.00 0.00 0.00 65 1015.3
20260906201704 17 305 4.8 4.8 0.00 0.00 0.00 66 1015.3
20260906201203 18 309 11.3 12.9 0.00 0.00 0.00 64 1015.6
20260906200659 18 303 4.8 8.0 0.00 0.00 0.00 65 1015.6
20260906200155 18 352 6.4 8.0 0.00 0.00 0.00 67 1015.5
20260906195650 17 294 8.0 11.3 0.00 0.00 0.00 68 1015.6
20260906195147 17 331 12.9 14.5 0.00 0.00 0.00 68 1015.5
20260906194642 17 292 8.0 12.9 0.00 0.00 0.00 69 1015.7
20260906194137 17 271 4.8 4.8 0.00 0.00 0.00 70 1015.7
20260906193632 17 324 4.8 8.0 0.00 0.00 0.00 69 1015.8
20260906193127 17 18 4.8 4.8 0.00 0.00 0.00 69 1016.1
20260906192623 17 191 1.6 1.6 0.00 0.00 0.00 70 1015.8
20260906192122 16 227 1.6 1.6 0.00 0.00 0.00 71 1016.2
20260906191618 17 245 0.0 0.0 0.00 0.00 0.00 70 1016.2
20260906191117 16 268 6.4 8.0 0.00 0.00 0.00 71 1016.2
20260906190617 16 341 4.8 4.8 0.00 0.00 0.00 72 1016.4
20260906190112 16 13 4.8 8.0 0.00 0.00 0.00 74 1016.2
20260906185610 16 56 1.6 3.2 0.00 0.00 0.00 75 1016.4
20260906185109 16 21 6.4 8.0 0.00 0.00 0.00 75 1016.5
20260906184604 15 88 8.0 11.3 0.00 0.00 0.00 77 1016.5
20260906184100 15 86 9.7 11.3 0.00 0.00 0.00 78 1016.6
20260906183556 15 51 8.0 9.7 0.00 0.00 0.00 78 1016.7
20260906183051 14 97 8.0 8.0 0.00 0.00 0.00 79 1016.8
20260906182546 13 65 3.2 3.2 0.00 0.00 0.00 80 1016.8
20260906182042 14 77 8.0 9.7 0.00 0.00 0.00 79 1017.1
20260906181538 13 69 6.4 9.7 0.00 0.00 0.00 81 1016.9
20260906181034 13 65 8.0 11.3 0.00 0.00 0.00 81 1017.1
20260906180534 12 71 6.4 8.0 0.00 0.00 0.00 82 1017.3
20260906180033 12 51 8.0 9.7 0.00 0.00 0.00 83 1017.5
20260906175527 12 50 3.2 4.8 0.00 0.00 0.00 84 1017.6
20260906175027 12 13 6.4 9.7 0.00 0.00 0.00 83 1017.5
20260906174524 12 33 3.2 4.8 0.00 0.00 0.00 84 1017.5
20260906174020 12 57 6.4 8.0 0.00 0.00 0.00 84 1017.7
20260906173514 11 13 4.8 4.8 0.00 0.00 0.00 84 1017.8
20260906173011 11 357 6.4 8.0 0.00 0.00 0.00 85 1018.1
20260906172505 11 335 6.4 8.0 0.00 0.00 0.00 85 1018.3
20260906172000 11 288 6.4 8.0 0.00 0.00 0.00 86 1018.4
20260906171455 11 5 4.8 4.8 0.00 0.00 0.00 86 1018.3
20260906170950 11 26 1.6 3.2 0.00 0.00 0.00 86 1018.4
20260906170446 11 334 6.4 9.7 0.00 0.00 0.00 86 1018.6
20260906165943 11 299 8.0 8.0 0.00 0.00 0.00 86 1018.4
20260906165442 11 297 11.3 12.9 0.00 0.00 0.00 86 1018.7
20260906164937 11 335 14.5 16.1 0.00 0.00 0.00 86 1018.7
20260906164436 11 288 11.3 12.9 0.00 0.00 0.00 86 1018.8
20260906163933 11 311 9.7 11.3 0.00 0.00 0.00 86 1018.8
20260906163428 11 293 9.7 11.3 0.00 0.00 0.00 86 1018.9
20260906162926 11 291 11.3 12.9 0.00 0.00 0.00 86 1018.9
20260906162425 11 283 9.7 11.3 0.00 0.00 0.00 86 1018.7
20260906161921 12 277 12.9 14.5 0.00 0.00 0.00 85 1018.6
20260906161420 12 267 12.9 14.5 0.00 0.00 0.00 85 1019.2
20260906160919 12 286 12.9 14.5 0.00 0.00 0.00 85 1018.8
20260906160413 12 262 14.5 14.5 0.00 0.00 0.00 85 1018.7
20260906155911 12 290 11.3 12.9 0.00 0.00 0.00 85 1018.9
20260906155405 12 256 3.2 4.8 0.00 0.00 0.00 85 1018.9
20260906154901 12 242 4.8 4.8 0.00 0.00 0.00 84 1018.9
20260906154355 12 230 1.6 3.2 0.00 0.00 0.00 84 1018.8
20260906153854 12 203 3.2 3.2 0.00 0.00 0.00 84 1018.8
20260906153353 12 170 3.2 3.2 0.00 0.00 0.00 84 1018.9
20260906152848 12 196 4.8 4.8 0.00 0.00 0.00 84 1018.8
20260906152343 12 176 3.2 3.2 0.00 0.00 0.00 84 1018.9
20260906151842 12 174 3.2 3.2 0.00 0.00 0.00 84 1018.9
20260906151338 12 148 6.4 8.0 0.00 0.00 0.00 84 1018.9
20260906150834 12 142 6.4 8.0 0.00 0.00 0.00 84 1019.1
20260906150329 12 157 6.4 8.0 0.00 0.00 0.00 84 1018.9
20260906145828 12 166 4.8 4.8 0.00 0.00 0.00 84 1019.2
20260906145327 12 167 3.2 3.2 0.00 0.00 0.00 84 1019.1
20260906144822 12 121 4.8 4.8 0.00 0.00 0.00 84 1019.4
20260906144317 12 128 3.2 3.2 0.00 0.00 0.00 84 1019.3
20260906143816 12 142 3.2 4.8 0.00 0.00 0.00 84 1019.2
20260906143313 12 158 4.8 4.8 0.00 0.00 0.00 84 1019.4
20260906142809 12 190 3.2 3.2 0.00 0.00 0.00 84 1019.4
20260906142306 12 187 4.8 4.8 0.00 0.00 0.00 84 1019.7
20260906141803 12 183 4.8 4.8 0.00 0.00 0.00 84 1019.7
20260906141257 12 133 3.2 3.2 0.00 0.00 0.00 83 1019.6
20260906140756 12 144 4.8 4.8 0.00 0.00 0.00 83 1019.5
20260906140251 12 155 4.8 4.8 0.00 0.00 0.00 83 1019.2
20260906135749 12 176 3.2 3.2 0.00 0.00 0.00 83 1019.2
20260906135244 12 217 1.6 1.6 0.00 0.00 0.00 84 1019.4
20260906134740 12 157 1.6 1.6 0.00 0.00 0.00 84 1019.4
20260906134235 12 158 0.0 1.6 0.00 0.00 0.00 84 1019.4
20260906133730 12 110 1.6 1.6 0.00 0.00 0.00 83 1019.4
20260906133226 12 146 1.6 1.6 0.00 0.00 0.00 82 1019.5
20260906132721 12 209 1.6 1.6 0.00 0.00 0.00 82 1019.2
20260906132216 12 216 1.6 1.6 0.00 0.00 0.00 81 1019.6
20260906131712 12 177 1.6 1.6 0.00 0.00 0.00 80 1019.4
20260906131207 12 197 0.0 0.0 0.00 0.00 0.00 79 1019.2
20260906130702 12 223 1.6 1.6 0.00 0.00 0.00 79 1019.4
20260906130157 12 220 1.6 1.6 0.00 0.00 0.00 78 1019.6
20260906125655 12 201 1.6 1.6 0.00 0.00 0.00 78 1019.3
20260906125154 12 240 1.6 3.2 0.00 0.00 0.00 78 1019.3
20260906124649 12 227 3.2 3.2 0.00 0.00 0.00 78 1019.4
20260906124144 12 237 4.8 4.8 0.00 0.00 0.00 78 1019.4
20260906123643 12 238 4.8 8.0 0.00 0.00 0.00 78 1019.4
20260906123139 12 189 3.2 3.2 0.00 0.00 0.00 77 1019.5
20260906122638 12 202 1.6 1.6 0.00 0.00 0.00 77 1019.2
20260906122134 12 191 1.6 1.6 0.00 0.00 0.00 77 1019.3
20260906121630 12 203 3.2 4.8 0.00 0.00 0.00 77 1019.2
20260906121126 12 204 4.8 4.8 0.00 0.00 0.00 78 1019.1
20260906120622 12 211 1.6 3.2 0.00 0.00 0.00 78 1019.1
20260906120119 12 251 4.8 4.8 0.00 0.00 0.00 78 1018.8
20260906115618 12 224 3.2 3.2 0.00 0.00 0.00 78 1018.8
20260906115114 12 212 1.6 1.6 0.00 0.00 0.00 77 1018.8
20260906114608 12 200 4.8 4.8 0.00 0.00 0.00 78 1018.7
20260906114103 12 207 3.2 3.2 0.00 0.00 0.00 78 1018.5
20260906113603 12 218 0.0 1.6 0.00 0.00 0.00 77 1018.7
20260906113057 12 221 1.6 1.6 0.00 0.00 0.00 77 1018.6
20260906112551 12 255 1.6 1.6 0.00 0.00 0.00 77 1018.8
20260906112049 12 259 1.6 1.6 0.00 0.00 0.00 77 1018.4
20260906111548 12 312 1.6 1.6 0.00 0.00 0.00 77 1018.3
20260906111043 12 283 1.6 1.6 0.00 0.00 0.00 77 1018.5
20260906110543 12 359 1.6 1.6 0.00 0.00 0.00 77 1018.2
20260906110042 12 82 1.6 1.6 0.00 0.00 0.00 77 1018.4
20260906105537 11 76 1.6 1.6 0.00 0.00 0.00 77 1018.3
20260906105033 12 83 0.0 0.0 0.00 0.00 0.00 77 1018.2
20260906104532 11 78 0.0 1.6 0.00 0.00 0.00 77 1018.2
20260906104027 11 47 1.6 1.6 0.00 0.00 0.00 77 1018.5
20260906103525 11 86 1.6 1.6 0.00 0.00 0.00 77 1018.6
20260906103020 11 90 1.6 1.6 0.00 0.00 0.00 77 1018.5
20260906102520 11 121 0.0 0.0 0.00 0.00 0.00 77 1018.6
20260906102015 11 125 0.0 0.0 0.00 0.00 0.00 77 1018.7
20260906101509 11 128 0.0 0.0 0.00 0.00 0.00 77 1018.4
20260906101004 11 129 0.0 0.0 0.00 0.00 0.00 77 1018.5
20260906100500 11 129 0.0 0.0 0.00 0.00 0.00 77 1018.7
20260906095954 11 107 0.0 0.0 0.00 0.00 0.00 77 1018.5
20260906095449 11 88 0.0 1.6 0.00 0.00 0.00 77 1018.3
20260906094944 11 63 1.6 1.6 0.00 0.00 0.00 77 1018.4
20260906094438 11 59 1.6 1.6 0.00 0.00 0.00 77 1018.5
20260906093934 11 153 0.0 1.6 0.00 0.00 0.00 77 1018.3
20260906093430 11 184 0.0 0.0 0.00 0.00 0.00 77 1018.4
20260906092930 11 168 1.6 1.6 0.00 0.00 0.00 78 1018.5
20260906092430 11 169 3.2 3.2 0.00 0.00 0.00 79 1018.4
20260906091925 10 135 0.0 1.6 0.00 0.00 0.00 79 1018.5
20260906091421 11 105 0.0 0.0 0.00 0.00 0.00 79 1018.2
20260906090917 11 100 0.0 0.0 0.00 0.00 0.00 78 1018.3
20260906090412 11 100 1.6 1.6 0.00 0.00 0.00 78 1018.6
20260906085906 11 212 1.6 1.6 0.00 0.00 0.00 78 1018.5
20260906085400 11 228 1.6 1.6 0.00 0.00 0.00 77 1018.5
20260906084900 11 186 3.2 3.2 0.00 0.00 0.00 77 1018.5
20260906084354 11 151 8.0 9.7 0.00 0.00 0.00 77 1018.5
20260906083848 11 155 4.8 4.8 0.00 0.00 0.00 77 1018.6
20260906083344 12 143 4.8 8.0 0.00 0.00 0.00 77 1018.5
20260906082843 11 143 6.4 8.0 0.00 0.00 0.00 77 1018.7
20260906082338 11 143 8.0 9.7 0.00 0.00 0.00 77 1018.6
20260906081835 11 144 4.8 4.8 0.00 0.00 0.00 77 1018.7
20260906081330 11 142 6.4 8.0 0.00 0.00 0.00 77 1018.8
20260906080826 11 150 6.4 8.0 0.00 0.00 0.00 78 1019.1
20260906080322 11 140 8.0 9.7 0.00 0.00 0.00 78 1019.1
20260906075821 11 163 8.0 9.7 0.00 0.00 0.00 77 1019.1
20260906075316 11 123 8.0 9.7 0.00 0.00 0.00 77 1019.1
20260906074811 11 129 11.3 11.3 0.00 0.00 0.00 78 1019.2
20260906074311 11 151 6.4 8.0 0.00 0.00 0.00 77 1019.4
20260906073810 11 162 1.6 1.6 0.00 0.00 0.00 77 1019.7
20260906073305 12 190 4.8 4.8 0.00 0.00 0.00 76 1019.8
20260906072801 12 223 4.8 4.8 0.00 0.00 0.00 76 1020.1
20260906072257 12 213 4.8 4.8 0.00 0.00 0.00 76 1019.9
20260906071752 12 216 3.2 3.2 0.00 0.00 0.00 76 1020.1
20260906071252 12 192 1.6 1.6 0.00 0.00 0.00 76 1020.1
20260906070749 12 203 3.2 3.2 0.00 0.00 0.00 75 1019.9
20260906070244 11 208 1.6 1.6 0.00 0.00 0.00 74 1019.9
20260906065744 11 197 1.6 1.6 0.00 0.00 0.00 73 1020.1
20260906065239 11 202 3.2 3.2 0.00 0.00 0.00 73 1020.2
20260906064735 11 209 3.2 3.2 0.00 0.00 0.00 73 1020.1
20260906064230 11 208 1.6 1.6 0.00 0.00 0.00 72 1020.1
20260906063725 12 223 1.6 1.6 0.00 0.00 0.00 72 1020.2
20260906063221 11 214 1.6 3.2 0.00 0.00 0.00 72 1020.2
20260906062716 11 237 1.6 1.6 0.00 0.00 0.00 72 1019.9
20260906062215 12 232 1.6 3.2 0.00 0.00 0.00 72 1020.3
20260906061711 12 203 1.6 1.6 0.00 0.00 0.00 72 1020.1
20260906061207 12 209 1.6 1.6 0.00 0.00 0.00 72 1020.3
20260906060703 12 227 0.0 1.6 0.00 0.00 0.00 71 1020.2
20260906060200 12 232 1.6 3.2 0.00 0.00 0.00 71 1020.3
20260906055655 12 264 3.2 3.2 0.00 0.00 0.00 71 1020.3
20260906055150 12 268 4.8 4.8 0.00 0.00 0.00 71 1020.5
20260906054646 12 264 4.8 4.8 0.00 0.00 0.00 71 1020.4
20260906054140 12 257 4.8 4.8 0.00 0.00 0.00 71 1020.4
20260906053638 12 259 6.4 8.0 0.00 0.00 0.00 70 1020.2
20260906053138 12 267 8.0 8.0 0.00 0.00 0.00 70 1020.1
20260906052633 12 233 8.0 11.3 0.00 0.00 0.00 70 1019.9
20260906052130 13 259 4.8 4.8 0.00 0.00 0.00 69 1019.7
20260906051626 13 328 4.8 4.8 0.00 0.00 0.00 68 1019.7
20260906051126 13 325 6.4 8.0 0.00 0.00 0.00 67 1019.7
20260906050621 14 350 8.0 9.7 0.00 0.00 0.00 67 1019.5
20260906050116 14 348 6.4 8.0 0.00 0.00 0.00 66 1019.6
20260906045614 14 354 8.0 9.7 0.00 0.00 0.00 66 1019.6
20260906045110 14 354 4.8 4.8 0.00 0.00 0.00 66 1019.5
20260906044606 15 1 6.4 8.0 0.00 0.00 0.00 65 1019.6
20260906044101 15 1 9.7 12.9 0.00 0.00 0.00 64 1019.4
20260906043557 15 11 11.3 12.9 0.00 0.00 0.00 63 1019.1
20260906043053 15 24 6.4 8.0 0.00 0.00 0.00 63 1019.2
20260906042551 15 29 6.4 8.0 0.00 0.00 0.00 63 1018.9
20260906042046 15 55 6.4 9.7 0.00 0.00 0.00 62 1018.9
20260906041543 15 34 12.9 14.5 0.00 0.00 0.00 62 1018.7
20260906041037 15 58 8.0 9.7 0.00 0.00 0.00 61 1018.5
20260906040532 15 23 6.4 9.7 0.00 0.00 0.00 60 1018.7
20260906040028 16 24 11.3 16.1 0.00 0.00 0.00 59 1018.5
20260906035522 16 43 16.1 22.5 0.00 0.00 0.00 58 1018.3
20260906035019 16 42 25.7 32.2 0.00 0.00 0.00 57 1017.9
20260906034518 16 52 14.5 17.7 0.00 0.00 0.00 57 1018.1
20260906034014 16 24 17.7 25.7 0.00 0.00 0.00 56 1018.1
20260906033508 16 50 16.1 20.9 0.00 0.00 0.00 54 1018.1
20260906033004 17 41 12.9 17.7 0.00 0.00 0.00 53 1018.2
20260906032501 17 352 16.1 24.1 0.00 0.00 0.00 50 1017.8
20260906032000 18 21 17.7 24.1 0.00 0.00 0.00 47 1017.5
20260906031456 18 359 17.7 22.5 0.00 0.00 0.00 43 1017.6
20260906030951 19 43 9.7 12.9 0.00 0.00 0.00 41 1017.4
20260906030446 19 47 6.4 8.0 0.00 0.00 0.00 41 1017.4
20260906025940 19 35 1.6 1.6 0.00 0.00 0.00 40 1017.3
20260906025434 20 29 6.4 8.0 0.00 0.00 0.00 39 1016.9
20260906024933 20 38 4.8 4.8 0.00 0.00 0.00 39 1016.8
20260906024432 20 61 6.4 8.0 0.00 0.00 0.00 39 1017.1
20260906023927 20 63 4.8 4.8 0.00 0.00 0.00 38 1016.9
20260906023424 20 74 12.9 14.5 0.00 0.00 0.00 37 1016.8
20260906022924 20 80 12.9 20.9 0.00 0.00 0.00 37 1016.9
20260906022419 20 48 16.1 17.7 0.00 0.00 0.00 36 1016.7
20260906021915 20 37 11.3 12.9 0.00 0.00 0.00 37 1016.7
20260906021414 21 42 17.7 20.9 0.00 0.00 0.00 36 1016.5
20260906020908 21 57 17.7 20.9 0.00 0.00 0.00 36 1016.4
20260906020403 21 30 16.1 20.9 0.00 0.00 0.00 36 1016.4
20260906015857 21 42 8.0 12.9 0.00 0.00 0.00 36 1016.5
20260906015357 21 47 16.1 17.7 0.00 0.00 0.00 36 1016.4
20260906014857 21 69 19.3 22.5 0.00 0.00 0.00 35 1016.7
20260906014356 21 51 14.5 17.7 0.00 0.00 0.00 35 1016.4
20260906013853 21 44 12.9 14.5 0.00 0.00 0.00 35 1016.5
20260906013348 21 79 8.0 11.3 0.00 0.00 0.00 35 1016.3
20260906012844 22 37 14.5 17.7 0.00 0.00 0.00 34 1016.2
20260906012339 22 51 16.1 20.9 0.00 0.00 0.00 33 1016.1
20260906011838 22 47 11.3 12.9 0.00 0.00 0.00 33 1016.2
20260906011333 22 43 11.3 14.5 0.00 0.00 0.00 32 1016.2
20260906010829 22 24 11.3 12.9 0.00 0.00 0.00 31 1016.3
20260906010325 23 18 14.5 17.7 0.00 0.00 0.00 31 1016.3
20260906005820 23 17 14.5 17.7 0.00 0.00 0.00 31 1016.3
20260906005319 23 34 11.3 11.3 0.00 0.00 0.00 31 1016.5
20260906004818 23 25 11.3 14.5 0.00 0.00 0.00 31 1016.3
20260906004318 23 60 12.9 20.9 0.00 0.00 0.00 30 1016.3
20260906003813 23 43 12.9 16.1 0.00 0.00 0.00 30 1015.9
20260906003309 23 30 17.7 20.9 0.00 0.00 0.00 30 1016.5
20260906002804 23 39 19.3 22.5 0.00 0.00 0.00 30 1016.3
20260906002306 23 32 19.3 22.5 0.00 0.00 0.00 30 1016.4
20260906001800 23 61 11.3 16.1 0.00 0.00 0.00 30 1016.4
20260906001254 23 25 16.1 17.7 0.00 0.00 0.00 29 1016.5
20260906000749 23 35 16.1 22.5 0.00 0.00 0.00 30 1016.5
20260906000244 23 22 16.1 20.9 0.00 0.00 0.00 29 1016.7
20260905235739 23 15 17.7 20.9 0.00 0.00 0.00 29 1016.5
20260905235238 23 2 16.1 20.9 0.00 0.00 0.00 29 1016.6
20260905234734 23 26 14.5 17.7 0.00 0.00 0.00 29 1016.4
20260905234229 23 25 11.3 12.9 0.00 0.00 0.00 29 1016.6
20260905233725 24 35 14.5 17.7 0.00 0.00 0.00 29 1016.7
20260905233224 23 19 16.1 20.9 0.00 0.00 0.00 29 1016.4
20260905232719 23 15 20.9 25.7 0.00 0.00 0.00 29 1016.6
20260905232214 23 26 14.5 17.7 0.00 0.00 0.00 30 1016.4
20260905231710 23 52 16.1 17.7 0.00 0.00 0.00 30 1016.2
20260905231206 23 64 11.3 14.5 0.00 0.00 0.00 30 1016.4
20260905230702 23 17 17.7 20.9 0.00 0.00 0.00 30 1016.5
20260905230159 23 19 14.5 16.1 0.00 0.00 0.00 30 1016.6